TimeCDT,TemperatureF,Dew PointF,Humidity,Sea Level PressureIn,VisibilityMPH,Wind Direction,Wind SpeedMPH,Gust SpeedMPH,PrecipitationIn,Events,Conditions,WindDirDegrees,DateUTC
12:53 AM,77.0,72.0,84,29.97,10.0,Variable,3.5,-,N/A,,Clear,0,2013-07-27 05:53:00
1:53 AM,75.9,73.0,91,29.97,10.0,Calm,Calm,-,N/A,,Partly Cloudy,0,2013-07-27 06:53:00
2:53 AM,75.9,73.0,91,29.96,6.0,Calm,Calm,-,N/A,,Clear,0,2013-07-27 07:53:00
3:53 AM,75.9,73.0,91,29.95,9.0,Calm,Calm,-,N/A,,Clear,0,2013-07-27 08:53:00
4:53 AM,75.9,71.1,85,29.93,10.0,North,6.9,-,N/A,,Partly Cloudy,10,2013-07-27 09:53:00
5:53 AM,75.9,70.0,82,29.94,10.0,NNE,6.9,-,N/A,,Overcast,20,2013-07-27 10:53:00
6:53 AM,75.0,69.1,82,29.96,10.0,North,8.1,-,N/A,,Mostly Cloudy,360,2013-07-27 11:53:00
7:53 AM,75.0,70.0,84,29.97,10.0,NNE,9.2,-,N/A,,Mostly Cloudy,20,2013-07-27 12:53:00
8:41 AM,75.9,70.0,82,30.04,10.0,NNE,10.4,-,N/A,,Mostly Cloudy,20,2013-07-27 13:41:00
8:51 AM,75.2,69.8,83,30.04,10.0,NNE,15.0,19.6,N/A,,Scattered Clouds,20,2013-07-27 13:51:00
8:53 AM,75.9,70.0,82,29.98,10.0,NNE,13.8,19.6,N/A,,Partly Cloudy,30,2013-07-27 13:53:00
9:33 AM,75.9,69.1,79,30.05,10.0,NNE,11.5,-,N/A,,Mostly Cloudy,30,2013-07-27 14:33:00
9:49 AM,78.8,69.8,74,30.05,10.0,NE,13.8,-,N/A,,Scattered Clouds,40,2013-07-27 14:49:00
9:53 AM,78.1,69.1,74,30.00,10.0,NE,10.4,-,N/A,,Scattered Clouds,40,2013-07-27 14:53:00
10:25 AM,79.0,69.1,72,30.05,10.0,NE,11.5,-,N/A,,Overcast,40,2013-07-27 15:25:00
10:39 AM,79.0,69.1,72,30.05,10.0,NNE,10.4,-,N/A,,Overcast,30,2013-07-27 15:39:00
10:53 AM,79.0,69.1,72,30.00,10.0,North,8.1,-,N/A,,Overcast,360,2013-07-27 15:53:00
11:03 AM,78.1,69.1,74,30.06,10.0,North,10.4,-,N/A,,Overcast,10,2013-07-27 16:03:00
11:53 AM,81.0,70.0,69,30.00,10.0,North,9.2,-,N/A,,Overcast,10,2013-07-27 16:53:00
12:11 PM,80.1,69.1,69,30.06,9.0,NNE,13.8,-,N/A,,Overcast,20,2013-07-27 17:11:00
12:19 PM,80.1,68.0,67,30.06,9.0,North,8.1,-,N/A,,Overcast,360,2013-07-27 17:19:00
12:53 PM,81.0,69.1,67,30.01,10.0,NNE,11.5,-,N/A,,Overcast,30,2013-07-27 17:53:00
1:53 PM,82.9,66.9,58,29.99,10.0,NNE,8.1,-,N/A,,Overcast,20,2013-07-27 18:53:00
2:53 PM,84.9,66.9,55,29.96,10.0,NE,10.4,16.1,N/A,,Scattered Clouds,40,2013-07-27 19:53:00
3:53 PM,87.1,66.9,51,29.95,10.0,NE,10.4,-,N/A,,Partly Cloudy,50,2013-07-27 20:53:00
4:53 PM,86.0,64.9,49,29.92,10.0,NE,9.2,-,N/A,,Clear,50,2013-07-27 21:53:00
5:53 PM,87.1,64.0,46,29.90,10.0,ENE,12.7,19.6,N/A,,Clear,60,2013-07-27 22:53:00
6:53 PM,86.0,64.9,49,29.90,10.0,NE,9.2,-,N/A,,Clear,50,2013-07-27 23:53:00
7:53 PM,82.9,66.0,56,29.91,10.0,ENE,6.9,-,N/A,,Clear,60,2013-07-28 00:53:00
8:53 PM,79.0,66.9,66,29.93,10.0,East,5.8,-,N/A,,Clear,100,2013-07-28 01:53:00
9:53 PM,75.9,66.9,74,29.95,10.0,East,4.6,-,N/A,,Clear,80,2013-07-28 02:53:00
10:53 PM,73.9,66.9,79,29.96,10.0,ENE,4.6,-,N/A,,Clear,60,2013-07-28 03:53:00
11:53 PM,73.9,66.0,76,29.94,10.0,NE,5.8,-,N/A,,Clear,40,2013-07-28 04:53:00